DateTimeUTC,F1_A11,F1_S11,BsB_S11,BsG_S11,BsR_S11,BbsB_S11,BbsG_S11,BbsR_S11,BaB_A11,BaG_A11,BaR_A11,Tu_S11,T_S11,Uu_S11,U_S11,P_S11,T1_A11
2021-11-17T13:00:00Z,00000200,21000000,,,,,,,0000.41,0000.16,0000.16,18.7,26.0,,00.0,0638.3,30.8
2021-11-17T13:01:00Z,00000200,21000000,,,,,,,0000.11,0000.22,-000.03,18.7,26.0,,00.0,0638.3,30.8
2021-11-17T13:02:00Z,00000200,21000000,,,,,,,-000.05,0000.24,0000.30,18.7,26.0,,00.0,0638.3,30.8
2021-11-17T13:03:00Z,00000200,61000000,,,,,,,0000.18,-000.01,-000.14,18.7,26.0,,00.0,0638.3,30.8
2021-11-17T13:04:00Z,00000200,41000000,0000.40,0000.19,-000.01,0001.31,-000.10,-000.25,0000.14,0000.19,0000.04,19.1,25.8,,00.0,0639.1,30.9
2021-11-17T13:05:00Z,00000200,01000000,0000.18,0000.29,-000.14,0000.34,0000.28,-000.62,0000.03,-000.18,0000.56,19.1,25.8,,00.0,0639.2,30.8
2021-11-17T13:06:00Z,00000200,01000000,0001.12,0000.12,-000.13,0000.58,0000.03,-000.15,0000.12,-000.16,-000.53,19.0,25.7,,00.0,0639.2,30.8
2021-11-17T13:07:00Z,00000200,01000000,-000.23,0000.11,-000.27,0000.38,0000.08,-000.16,0000.09,0000.37,0000.18,18.9,25.7,,00.0,0639.2,30.8
2021-11-17T13:08:00Z,00000200,01000000,0000.09,-000.08,-000.02,0000.50,0000.10,-000.13,-000.11,-000.10,0000.07,18.8,25.6,,00.0,0639.2,30.7
2021-11-17T13:09:00Z,00000200,01000000,-000.58,-000.01,-000.07,0000.20,-000.05,-000.42,0000.04,-000.18,-000.13,18.7,25.5,,00.0,0639.1,30.7
2021-11-17T13:10:00Z,00000200,01000000,0000.51,0000.02,0000.48,0000.30,0000.39,0000.20,-000.15,0000.17,0000.41,18.6,25.5,,00.0,0639.1,30.7
2021-11-17T13:11:00Z,00000200,01000000,0000.48,-000.19,-000.03,0000.97,-000.37,-000.21,0000.19,0000.27,-000.03,18.5,25.4,,00.0,0639.1,30.7
2021-11-17T13:12:00Z,00000200,01000000,-000.34,-000.06,-000.12,0000.47,0000.26,-000.07,0000.09,-000.01,0000.20,18.4,25.3,,00.0,0639.1,30.7
2021-11-17T13:13:00Z,00000200,01000000,0000.62,0000.05,0000.01,0000.46,-000.02,-000.10,0000.18,0000.27,0000.10,18.4,25.3,,00.0,0639.1,30.7
2021-11-17T13:14:00Z,00000200,01000000,0000.71,0000.12,-000.10,0000.34,-000.22,0000.14,0000.14,-000.04,0000.00,18.4,25.3,,00.0,0639.0,30.7
2021-11-17T13:15:00Z,00000200,01000000,0000.62,0000.08,-000.20,-000.52,0000.12,-000.12,0000.14,0000.13,0000.15,18.4,25.3,,00.0,0639.0,30.7
2021-11-17T13:16:00Z,00000200,01000000,-000.18,0000.25,-000.30,0000.33,-000.06,-000.14,0000.27,-000.21,0000.07,18.4,25.3,,00.0,0639.0,30.8
2021-11-17T13:17:00Z,00000200,01000000,0001.17,-000.14,0000.00,0000.65,0000.00,-000.05,-000.12,0000.41,0000.12,18.4,25.3,,00.0,0639.0,30.8
2021-11-17T13:18:00Z,00000200,01000000,0000.35,-000.10,-000.05,0000.20,0000.01,-000.08,0000.21,0000.24,-000.14,18.4,25.3,,00.0,0639.0,30.8
2021-11-17T13:19:00Z,00000200,01000000,0000.48,0000.01,0000.10,-000.27,0000.04,-000.23,0000.04,0000.16,0000.11,18.5,25.2,,00.0,0639.0,30.8
2021-11-17T13:20:00Z,00000200,01000000,0000.32,0000.24,-000.54,0000.13,0000.05,-000.14,0000.24,-000.17,0000.23,18.5,25.3,,00.0,0639.0,30.8
2021-11-17T13:21:00Z,00000200,01000000,0000.02,-000.21,0000.07,0000.70,0000.06,-000.20,-000.14,0000.10,-000.16,18.6,25.3,,00.0,0639.0,30.8
2021-11-17T13:22:00Z,00000200,01000000,-000.06,-000.14,-000.30,-000.09,-000.13,0000.15,0000.16,0000.14,0000.06,18.6,25.3,,00.0,0639.1,30.9
2021-11-17T13:23:00Z,00000200,01000000,0000.32,0000.05,-000.39,0000.96,0000.11,-000.13,-000.07,-000.04,0000.31,18.7,25.3,,00.0,0639.1,30.9
2021-11-17T13:24:00Z,00000200,01000000,0000.52,-000.24,0000.04,-000.02,-000.09,0000.04,0000.43,0000.13,-000.13,18.7,25.3,,00.0,0639.1,30.9
2021-11-17T13:25:00Z,00000200,01000000,-000.52,0000.30,0000.02,0000.39,-000.08,-000.17,-000.35,0000.15,0000.40,18.7,25.4,,00.0,0639.1,30.8
2021-11-17T13:26:00Z,00000200,01000000,-000.06,0000.00,0000.13,0000.28,0000.21,-000.01,0000.61,0000.28,-000.27,18.7,25.4,,00.0,0639.0,30.8
2021-11-17T13:27:00Z,00000200,01000000,0000.73,0000.12,0000.13,0000.56,0000.20,-000.05,-000.06,-000.24,0000.10,18.7,25.4,,00.0,0639.0,30.8
2021-11-17T13:28:00Z,00000200,01000000,-000.50,-000.19,-000.06,0000.43,-000.10,-000.37,0000.25,0000.18,0000.16,18.7,25.3,,00.0,0639.1,30.8
2021-11-17T13:29:00Z,00000200,01000000,0000.21,0000.06,-000.06,0000.22,0000.05,-000.12,-000.14,0000.17,-000.05,18.7,25.3,,00.0,0639.1,30.8
2021-11-17T13:30:00Z,00000200,01000000,0000.26,0000.21,0000.08,-000.10,0000.10,-000.09,-000.02,-000.26,0000.23,18.8,25.3,,00.0,0639.1,30.8
2021-11-17T13:31:00Z,00000200,01000000,-000.29,0000.20,0000.16,0000.46,-000.04,-000.10,0000.37,0000.62,0000.12,18.8,25.3,,00.0,0639.1,30.9
2021-11-17T13:32:00Z,00000200,01000000,0000.28,0000.24,0000.10,0000.45,0000.01,-000.19,-000.31,-000.30,-000.17,18.8,25.3,,00.0,0639.1,30.9
2021-11-17T13:33:00Z,00000200,01000000,0000.03,-000.07,0000.14,-000.20,0000.18,-000.05,0000.45,0000.04,0000.12,18.8,25.4,,00.0,0639.0,30.9
2021-11-17T13:34:00Z,00000200,01000000,-000.21,0000.09,-000.04,0000.06,-000.06,0000.12,0000.05,0000.45,0000.42,18.8,25.4,,00.0,0639.0,30.9
2021-11-17T13:35:00Z,00000200,01000000,-000.34,0000.23,0000.12,-000.03,-000.03,-000.25,-000.03,0000.05,-000.05,18.9,25.4,,00.0,0639.0,30.9
2021-11-17T13:36:00Z,00000200,01000000,0000.13,-000.19,-000.07,0000.46,0000.04,-000.17,0000.20,-000.19,-000.19,18.9,25.4,,00.0,0639.0,30.9
2021-11-17T13:37:00Z,00000200,01000000,0000.99,-000.19,-000.03,0000.56,0000.25,-000.02,-000.00,-000.05,0000.21,19.0,25.4,,00.0,0639.0,30.9
2021-11-17T13:38:00Z,00000200,01000000,0000.20,0000.15,0000.26,0000.06,0000.19,0000.03,0000.20,0000.38,0000.19,19.0,25.5,,00.0,0639.0,30.9
2021-11-17T13:39:00Z,00000200,01000000,0000.46,-000.27,-000.09,0000.01,-000.03,-000.05,-000.10,-000.05,-000.05,19.0,25.5,,00.0,0639.0,30.9
2021-11-17T13:40:00Z,00000200,01000000,0000.18,0000.08,-000.09,0000.15,0000.25,-000.08,0000.11,-000.05,0000.13,19.0,25.5,,00.0,0639.0,30.9
2021-11-17T13:41:00Z,00000200,01000000,0000.19,0000.05,0000.25,0000.66,0000.15,-000.05,0000.25,0000.51,-000.01,18.9,25.5,,00.0,0639.0,30.9
2021-11-17T13:42:00Z,00000200,01000000,-000.10,0000.41,0000.23,0000.30,-000.05,0000.22,0000.01,-000.26,0000.07,18.9,25.4,,00.0,0639.0,30.8
2021-11-17T13:43:00Z,00000200,01000000,-000.83,-000.06,0000.19,0000.57,-000.00,-000.29,0000.16,0000.45,0000.05,18.9,25.4,,00.0,0639.0,30.9
2021-11-17T13:44:00Z,00000200,01000000,0000.12,-000.02,-000.08,0000.32,0000.06,0000.06,-000.01,-000.12,0000.22,18.9,25.4,,00.0,0639.0,30.9
2021-11-17T13:45:00Z,00000200,01000000,0000.12,-000.19,0000.20,0000.34,0000.28,0000.16,0000.15,0000.11,-000.12,18.9,25.4,,00.0,0639.0,30.9
2021-11-17T13:46:00Z,00000200,01000000,0000.71,0000.04,-000.08,0000.32,-000.03,-000.42,-000.06,-000.02,-000.01,19.0,25.5,,00.0,0639.0,30.9
2021-11-17T13:47:00Z,00000200,01000000,0000.53,-000.37,-000.06,-000.14,0000.20,0000.02,0000.17,0000.10,0000.38,19.0,25.5,,00.0,0639.0,30.9
2021-11-17T13:48:00Z,00000200,01000000,-000.02,-000.24,-000.07,0000.51,0000.02,-000.29,0000.10,0000.28,-000.10,19.1,25.5,,00.0,0639.0,30.9
2021-11-17T13:49:00Z,00000200,01000000,0001.02,0000.25,-000.01,0000.45,0000.07,-000.37,-000.08,-000.13,0000.24,19.1,25.5,,00.0,0639.0,30.9
2021-11-17T13:50:00Z,00000200,01000000,-000.20,-000.06,-000.01,-000.06,0000.04,-000.27,0000.11,-000.06,0000.08,19.2,25.5,,00.0,0639.0,30.9
2021-11-17T13:51:00Z,00000200,01000000,0000.10,0000.31,-000.45,-000.20,0000.10,-000.44,0000.33,0000.04,0000.06,19.2,25.6,,00.0,0639.0,30.9
2021-11-17T13:52:00Z,00000200,01000000,0000.96,0000.23,-000.23,0000.75,0000.10,-000.27,-000.48,0000.16,-000.00,19.2,25.6,,00.0,0639.0,30.9
2021-11-17T13:53:00Z,00000200,01000000,-000.10,-000.11,0000.07,0000.92,0000.25,0000.20,0000.17,-000.21,0000.00,19.2,25.6,,00.0,0639.0,30.9
2021-11-17T13:54:00Z,00000200,01000000,0000.21,-000.06,-000.15,0000.48,0000.13,-000.20,0000.08,0000.31,-000.21,19.1,25.6,,00.0,0639.0,30.9
2021-11-17T13:55:00Z,00000200,01000000,0000.61,0000.08,-000.52,0000.21,-000.13,-000.35,0000.02,-000.22,0000.31,19.0,25.5,,00.0,0639.0,30.9
2021-11-17T13:56:00Z,00000200,01000000,-000.00,0000.23,-000.19,0000.07,-000.00,-000.48,0000.08,0000.05,-000.35,19.0,25.4,,00.0,0639.0,30.8
2021-11-17T13:57:00Z,00000200,41000000,,,,,,,-000.45,-000.28,-000.19,19.0,25.5,,00.0,0638.9,30.8
2021-11-17T13:58:00Z,00000200,61000000,,,,,,,0000.38,0000.22,0000.03,18.7,25.5,,00.0,0638.0,30.8
2021-11-17T13:59:00Z,00000200,21000000,,,,,,,0000.30,0000.32,0000.49,18.7,25.6,,00.0,0638.1,30.9
